Mineralnyye Vody Airport

Jump to: basic info | weather | frequencies | runways | comments

Related pages: nearby airports | nearby navaids | notams | map

Basic information (top)

Codes: MRV URMM
Location: lon 44.225101, lat 43.081902, elev 1,054 ft / 321 m msl
Status: medium_airport
Scheduled airline service: yes
Links: Wikipedia Mobile

Weather (top)

Current conditions (rec'd 2015/03/28 15:30Z):

URMM 281530Z 10011G16MPS 2800 -DZ BR OVC003 05/05 Q1018 R12/290250 TEMPO 0500 FG OVC002 RMK QBB090 MT OBSC QFE735/0980

Airport forecast (rec'd 2015/03/28 15:00Z):

TAF URMM 281350Z 2815/2915 10012G17MPS 5000 -DZ BR OVC007 530002 
      TEMPO 2815/2909 11007G12MPS 0300 FG OVC002 
      TEMPO 2909/2915 1200 OVC004

Frequencies (top)

Verify before use: may be inaccurate or out of date.

APP: 119.3 MHz (APP)
ATIS: 127.4 MHz (ATIS)
GND: 121.9 MHz (TAXIING)
RDR: 120.7 MHz (KRUG)
TWR: 128 MHz (START)

Runways (top)

12/30: 12,795 x 197 ft (3,900 x 60 m) — paved — lighted

Latest comments (top)

No comments yet for Mineralnyye Vody Airport

More... (top)

See also NOTAMs and nearby airports and navaids, or visit the Mineralnyye Vody Airport page at the main OurAirports website..